Time,TemperatureF,DewpointF,PressureIn,WindDirection,WindDirectionDegrees,WindSpeedMPH,WindSpeedGustMPH,Humidity,HourlyPrecipIn,Conditions,Clouds,dailyrainin,SolarRadiationWatts/m^2,SoftwareType,DateUTC
2013-06-11 00:03:00,60.0,60.0,-100.00,NW,304,0.0,0.0,100,0.01,,,0.68,0.000000,,2013-06-11 04:03:00,
2013-06-11 00:13:00,60.0,60.0,-100.00,NW,304,0.0,0.0,100,0.01,,,0.68,0.000000,,2013-06-11 04:13:00,
2013-06-11 00:34:00,59.0,59.0,-100.00,NW,309,0.0,0.0,100,0.01,,,0.69,0.000000,,2013-06-11 04:34:00,
2013-06-11 00:43:00,59.0,59.0,-100.00,NW,309,0.0,0.0,100,0.01,,,0.69,0.000000,,2013-06-11 04:43:00,
2013-06-11 00:53:00,59.0,59.0,-100.00,NW,309,0.0,0.0,100,0.01,,,0.69,0.000000,,2013-06-11 04:53:00,
2013-06-11 01:02:00,59.0,59.0,-100.00,NW,309,0.0,0.0,100,0.01,,,0.69,0.000000,,2013-06-11 05:02:00,
2013-06-11 01:12:00,59.0,59.0,-100.00,NW,309,0.0,0.0,100,0.01,,,0.69,0.000000,,2013-06-11 05:12:00,
2013-06-11 01:32:00,59.0,59.0,-100.00,NW,315,0.0,0.0,100,0.01,,,0.70,0.000000,,2013-06-11 05:32:00,
2013-06-11 01:42:00,59.0,59.0,-100.00,NW,315,0.0,0.0,100,0.01,,,0.70,0.000000,,2013-06-11 05:42:00,
2013-06-11 01:52:00,59.0,59.0,-100.00,NW,315,0.0,0.0,100,0.01,,,0.70,0.000000,,2013-06-11 05:52:00,
2013-06-11 02:02:00,59.0,59.0,-100.00,NW,315,0.0,0.0,100,0.01,,,0.70,0.000000,,2013-06-11 06:02:00,
2013-06-11 02:12:00,59.0,59.0,-100.00,NW,315,0.0,0.0,100,0.01,,,0.70,0.000000,,2013-06-11 06:12:00,
2013-06-11 02:32:00,59.0,59.0,-100.00,NW,322,0.0,0.0,100,0.01,,,0.63,0.000000,,2013-06-11 06:32:00,
2013-06-11 02:42:00,59.0,59.0,-100.00,NW,322,0.0,0.0,100,0.01,,,0.63,0.000000,,2013-06-11 06:42:00,
2013-06-11 02:52:00,59.0,59.0,-100.00,NW,322,0.0,0.0,100,0.01,,,0.63,0.000000,,2013-06-11 06:52:00,
2013-06-11 03:02:00,59.0,59.0,-100.00,NW,322,0.0,0.0,100,0.01,,,0.63,0.000000,,2013-06-11 07:02:00,
2013-06-11 03:13:00,59.0,59.0,-100.00,NW,322,0.0,0.0,100,0.01,,,0.63,0.000000,,2013-06-11 07:13:00,
2013-06-11 03:42:00,58.0,58.0,-100.00,NW,314,0.0,0.0,100,0.00,,,0.62,0.000000,,2013-06-11 07:42:00,
2013-06-11 03:52:00,58.0,58.0,-100.00,NW,314,0.0,0.0,100,0.00,,,0.62,0.000000,,2013-06-11 07:52:00,
2013-06-11 04:03:00,58.0,58.0,-100.00,NW,314,0.0,0.0,100,0.00,,,0.62,0.000000,,2013-06-11 08:03:00,
2013-06-11 04:12:00,58.0,58.0,-100.00,NW,314,0.0,0.0,100,0.00,,,0.62,0.000000,,2013-06-11 08:12:00,
2013-06-11 04:32:00,59.0,59.0,-100.00,NW,317,0.0,0.0,100,0.01,,,0.63,0.000000,,2013-06-11 08:32:00,
2013-06-11 04:42:00,59.0,59.0,-100.00,NW,317,0.0,0.0,100,0.01,,,0.63,0.000000,,2013-06-11 08:42:00,
2013-06-11 04:52:00,59.0,59.0,-100.00,NW,317,0.0,0.0,100,0.01,,,0.63,0.000000,,2013-06-11 08:52:00,
2013-06-11 05:02:00,59.0,59.0,-100.00,NW,317,0.0,0.0,100,0.01,,,0.63,0.000000,,2013-06-11 09:02:00,
2013-06-11 05:12:00,59.0,59.0,-100.00,NW,317,0.0,0.0,100,0.01,,,0.63,0.000000,,2013-06-11 09:12:00,
2013-06-11 05:33:00,58.0,58.0,-100.00,West,271,0.0,0.0,100,0.00,,,0.62,0.000000,,2013-06-11 09:33:00,
2013-06-11 05:43:00,58.0,58.0,-100.00,West,271,0.0,0.0,100,0.00,,,0.62,0.000000,,2013-06-11 09:43:00,
2013-06-11 05:53:00,58.0,58.0,-100.00,West,271,0.0,0.0,100,0.00,,,0.62,0.000000,,2013-06-11 09:53:00,
2013-06-11 06:03:00,58.0,58.0,-100.00,West,271,0.0,0.0,100,0.00,,,0.62,0.000000,,2013-06-11 10:03:00,
2013-06-11 06:12:00,58.0,58.0,-100.00,West,271,0.0,0.0,100,0.00,,,0.62,0.000000,,2013-06-11 10:12:00,
2013-06-11 06:33:00,58.0,58.0,-100.00,NW,315,0.0,0.0,100,0.00,,,0.57,3.000000,,2013-06-11 10:33:00,
2013-06-11 06:43:00,58.0,58.0,-100.00,NW,315,0.0,0.0,100,0.00,,,0.57,3.000000,,2013-06-11 10:43:00,
2013-06-11 06:52:00,58.0,58.0,-100.00,NW,315,0.0,0.0,100,0.00,,,0.57,3.000000,,2013-06-11 10:52:00,
2013-06-11 07:02:00,58.0,58.0,-100.00,NW,315,0.0,0.0,100,0.00,,,0.57,3.000000,,2013-06-11 11:02:00,
2013-06-11 07:12:00,58.0,58.0,-100.00,NW,315,0.0,0.0,100,0.00,,,0.57,3.000000,,2013-06-11 11:12:00,
2013-06-11 07:32:00,60.0,60.0,-100.00,NW,318,0.0,0.0,100,0.00,,,-99.99,56.000000,,2013-06-11 11:32:00,
2013-06-11 07:42:00,60.0,60.0,-100.00,NW,318,0.0,0.0,100,0.00,,,-99.99,56.000000,,2013-06-11 11:42:00,
2013-06-11 07:52:00,60.0,60.0,-100.00,NW,318,0.0,0.0,100,0.00,,,-99.99,56.000000,,2013-06-11 11:52:00,
2013-06-11 08:02:00,60.0,60.0,-100.00,NW,318,0.0,0.0,100,0.00,,,-99.99,56.000000,,2013-06-11 12:02:00,
2013-06-11 08:12:00,60.0,60.0,-100.00,NW,318,0.0,0.0,100,0.00,,,-99.99,56.000000,,2013-06-11 12:12:00,
2013-06-11 08:32:00,63.0,63.0,-100.00,NW,326,0.0,0.0,100,0.00,,,-99.99,169.000000,,2013-06-11 12:32:00,
2013-06-11 08:42:00,63.0,63.0,-100.00,NW,326,0.0,0.0,100,0.00,,,-99.99,169.000000,,2013-06-11 12:42:00,
2013-06-11 08:52:00,63.0,63.0,-100.00,NW,326,0.0,0.0,100,0.00,,,-99.99,169.000000,,2013-06-11 12:52:00,
2013-06-11 09:02:00,63.0,63.0,-100.00,NW,326,0.0,0.0,100,0.00,,,-99.99,169.000000,,2013-06-11 13:02:00,
2013-06-11 09:12:00,63.0,63.0,-100.00,NW,326,0.0,0.0,100,0.00,,,-99.99,169.000000,,2013-06-11 13:12:00,
2013-06-11 09:32:00,63.0,63.0,-100.00,NW,318,0.0,0.0,100,0.00,,,0.34,248.000000,,2013-06-11 13:32:00,
2013-06-11 09:42:00,63.0,63.0,-100.00,NW,318,0.0,0.0,100,0.00,,,0.34,248.000000,,2013-06-11 13:42:00,
2013-06-11 09:52:00,63.0,63.0,-100.00,NW,318,0.0,0.0,100,0.00,,,0.34,248.000000,,2013-06-11 13:52:00,
2013-06-11 10:02:00,63.0,63.0,-100.00,NW,318,0.0,0.0,100,0.00,,,0.34,248.000000,,2013-06-11 14:02:00,
2013-06-11 10:12:00,63.0,63.0,-100.00,NW,318,0.0,0.0,100,0.00,,,0.34,248.000000,,2013-06-11 14:12:00,
2013-06-11 10:32:00,65.0,65.0,-100.00,NW,319,0.0,0.0,100,0.00,,,0.30,320.000000,,2013-06-11 14:32:00,
2013-06-11 10:42:00,65.0,65.0,-100.00,NW,319,0.0,0.0,100,0.00,,,0.30,320.000000,,2013-06-11 14:42:00,
2013-06-11 10:53:00,65.0,65.0,-100.00,NW,319,0.0,0.0,100,0.00,,,0.30,320.000000,,2013-06-11 14:53:00,
2013-06-11 11:02:00,65.0,65.0,-100.00,NW,319,0.0,0.0,100,0.00,,,0.30,320.000000,,2013-06-11 15:02:00,
2013-06-11 11:12:00,65.0,65.0,-100.00,NW,319,0.0,0.0,100,0.00,,,0.30,320.000000,,2013-06-11 15:12:00,
2013-06-11 11:33:00,64.0,64.0,-100.00,NW,324,0.0,0.0,100,0.00,,,0.27,234.000000,,2013-06-11 15:33:00,
2013-06-11 11:43:00,64.0,64.0,-100.00,NW,324,0.0,0.0,100,0.00,,,0.27,234.000000,,2013-06-11 15:43:00,
2013-06-11 11:53:00,64.0,64.0,-100.00,NW,324,0.0,0.0,100,0.00,,,0.27,234.000000,,2013-06-11 15:53:00,
2013-06-11 12:03:00,64.0,64.0,-100.00,NW,324,0.0,0.0,100,0.00,,,0.27,234.000000,,2013-06-11 16:03:00,
2013-06-11 12:12:00,64.0,64.0,-100.00,NW,324,0.0,0.0,100,0.00,,,0.27,234.000000,,2013-06-11 16:12:00,
2013-06-11 12:33:00,63.0,63.0,-100.00,NNW,330,0.0,0.0,100,0.00,,,0.25,132.000000,,2013-06-11 16:33:00,
2013-06-11 12:42:00,63.0,63.0,-100.00,NNW,330,0.0,0.0,100,0.00,,,0.25,132.000000,,2013-06-11 16:42:00,
2013-06-11 12:53:00,63.0,63.0,-100.00,NNW,330,0.0,0.0,100,0.00,,,0.25,132.000000,,2013-06-11 16:53:00,
2013-06-11 13:02:00,63.0,63.0,-100.00,NNW,330,0.0,0.0,100,0.00,,,0.25,132.000000,,2013-06-11 17:02:00,
2013-06-11 13:12:00,63.0,63.0,-100.00,NNW,330,0.0,0.0,100,0.00,,,0.25,132.000000,,2013-06-11 17:12:00,
2013-06-11 13:32:00,63.0,63.0,-100.00,NNW,333,0.0,0.0,100,0.00,,,0.24,93.000000,,2013-06-11 17:32:00,
2013-06-11 13:43:00,63.0,63.0,-100.00,NNW,333,0.0,0.0,100,0.00,,,0.24,93.000000,,2013-06-11 17:43:00,
2013-06-11 13:53:00,63.0,63.0,-100.00,NNW,333,0.0,0.0,100,0.00,,,0.24,93.000000,,2013-06-11 17:53:00,
2013-06-11 14:02:00,63.0,63.0,-100.00,NNW,333,0.0,0.0,100,0.00,,,0.24,93.000000,,2013-06-11 18:02:00,
2013-06-11 14:12:00,63.0,63.0,-100.00,NNW,333,0.0,0.0,100,0.00,,,0.24,93.000000,,2013-06-11 18:12:00,
2013-06-11 14:33:00,63.0,63.0,-100.00,NNW,338,0.0,0.0,100,0.00,,,0.22,70.000000,,2013-06-11 18:33:00,
2013-06-11 14:43:00,63.0,63.0,-100.00,NNW,338,0.0,0.0,100,0.00,,,0.22,70.000000,,2013-06-11 18:43:00,
2013-06-11 14:52:00,63.0,63.0,-100.00,NNW,338,0.0,0.0,100,0.00,,,0.22,70.000000,,2013-06-11 18:52:00,
2013-06-11 15:03:00,63.0,63.0,-100.00,NNW,338,0.0,0.0,100,0.00,,,0.22,70.000000,,2013-06-11 19:03:00,
2013-06-11 15:12:00,63.0,63.0,-100.00,NNW,338,0.0,0.0,100,0.00,,,0.22,70.000000,,2013-06-11 19:12:00,
2013-06-11 15:33:00,63.0,63.0,-100.00,NNW,333,0.0,0.0,100,0.00,,,0.21,71.000000,,2013-06-11 19:33:00,
2013-06-11 15:42:00,63.0,63.0,-100.00,NNW,333,0.0,0.0,100,0.00,,,0.21,71.000000,,2013-06-11 19:42:00,
2013-06-11 15:53:00,63.0,63.0,-100.00,NNW,333,0.0,0.0,100,0.00,,,0.21,71.000000,,2013-06-11 19:53:00,
2013-06-11 16:03:00,63.0,63.0,-100.00,NNW,333,0.0,0.0,100,0.00,,,0.21,71.000000,,2013-06-11 20:03:00,
2013-06-11 16:12:00,63.0,63.0,-100.00,NNW,333,0.0,0.0,100,0.00,,,0.21,71.000000,,2013-06-11 20:12:00,
2013-06-11 16:42:00,65.0,65.0,-100.00,NNW,336,0.0,0.0,100,0.00,,,0.19,101.000000,,2013-06-11 20:42:00,
2013-06-11 16:52:00,65.0,65.0,-100.00,NNW,336,0.0,0.0,100,0.00,,,0.19,101.000000,,2013-06-11 20:52:00,
2013-06-11 17:02:00,65.0,65.0,-100.00,NNW,336,0.0,0.0,100,0.00,,,0.19,101.000000,,2013-06-11 21:02:00,
2013-06-11 17:12:00,65.0,65.0,-100.00,NNW,336,0.0,0.0,100,0.00,,,0.19,101.000000,,2013-06-11 21:12:00,
2013-06-11 17:42:00,70.0,65.0,-100.00,NNW,332,0.0,0.0,84,0.00,,,0.17,425.000000,,2013-06-11 21:42:00,
2013-06-11 17:53:00,70.0,65.0,-100.00,NNW,332,0.0,0.0,84,0.00,,,0.17,425.000000,,2013-06-11 21:53:00,
2013-06-11 18:03:00,70.0,65.0,-100.00,NNW,332,0.0,0.0,84,0.00,,,0.17,425.000000,,2013-06-11 22:03:00,
2013-06-11 18:12:00,70.0,65.0,-100.00,NNW,332,0.0,0.0,84,0.00,,,0.17,425.000000,,2013-06-11 22:12:00,
2013-06-11 18:42:00,68.0,64.0,-100.00,NNW,336,0.0,0.0,88,0.00,,,0.13,279.000000,,2013-06-11 22:42:00,
2013-06-11 18:52:00,68.0,64.0,-100.00,NNW,336,0.0,0.0,88,0.00,,,0.13,279.000000,,2013-06-11 22:52:00,
2013-06-11 19:02:00,68.0,64.0,-100.00,NNW,336,0.0,0.0,88,0.00,,,0.13,279.000000,,2013-06-11 23:02:00,
2013-06-11 19:12:00,68.0,64.0,-100.00,NNW,336,0.0,0.0,88,0.00,,,0.13,279.000000,,2013-06-11 23:12:00,
2013-06-11 19:42:00,65.0,65.0,-100.00,NW,325,0.0,0.0,100,0.00,,,0.10,108.000000,,2013-06-11 23:42:00,
2013-06-11 19:52:00,65.0,65.0,-100.00,NW,325,0.0,0.0,100,0.00,,,0.10,108.000000,,2013-06-11 23:52:00,
2013-06-11 20:02:00,65.0,65.0,-100.00,NW,325,0.0,0.0,100,0.00,,,0.10,108.000000,,2013-06-12 00:02:00,
2013-06-11 20:12:00,65.0,65.0,-100.00,NW,325,0.0,0.0,100,0.00,,,0.10,108.000000,,2013-06-12 00:12:00,
2013-06-11 21:32:00,62.0,62.0,-100.00,NNW,330,0.0,0.0,100,-99.99,,,0.06,6.000000,,2013-06-12 01:32:00,
2013-06-11 21:42:00,62.0,62.0,-100.00,NNW,330,0.0,0.0,100,-99.99,,,0.06,6.000000,,2013-06-12 01:42:00,
2013-06-11 21:52:00,62.0,62.0,-100.00,NNW,330,0.0,0.0,100,-99.99,,,0.06,6.000000,,2013-06-12 01:52:00,
2013-06-11 22:02:00,62.0,62.0,-100.00,NNW,330,0.0,0.0,100,-99.99,,,0.06,6.000000,,2013-06-12 02:02:00,
2013-06-11 22:12:00,62.0,62.0,-100.00,NNW,330,0.0,0.0,100,-99.99,,,0.06,6.000000,,2013-06-12 02:12:00,
2013-06-11 22:32:00,62.0,62.0,-100.00,NW,325,0.0,0.0,100,0.00,,,0.05,0.000000,,2013-06-12 02:32:00,
2013-06-11 22:42:00,62.0,62.0,-100.00,NW,325,0.0,0.0,100,0.00,,,0.05,0.000000,,2013-06-12 02:42:00,
2013-06-11 22:52:00,62.0,62.0,-100.00,NW,325,0.0,0.0,100,0.00,,,0.05,0.000000,,2013-06-12 02:52:00,
2013-06-11 23:02:00,62.0,62.0,-100.00,NW,325,0.0,0.0,100,0.00,,,0.05,0.000000,,2013-06-12 03:02:00,
2013-06-11 23:12:00,62.0,62.0,-100.00,NW,325,0.0,0.0,100,0.00,,,0.05,0.000000,,2013-06-12 03:12:00,
2013-06-11 23:43:00,62.0,62.0,-100.00,NNW,337,0.0,0.0,100,0.00,,,0.04,0.000000,,2013-06-12 03:43:00,
2013-06-11 23:53:00,62.0,62.0,-100.00,NNW,337,0.0,0.0,100,0.00,,,0.04,0.000000,,2013-06-12 03:53:00,